Home   Weather   Frechen   Past weeks
Flag for Germany

Past Weather in Frechen, North Rhine-Westphalia, Germany — Yesterday and Last 2 Weeks

Now
75 °F

Mild.


Feels Like: 76 °F
Forecast: 76 / 54 °F
Wind: 9 mph from Southeast

Location: Noervenich

Current Time: Sep 21, 2019 at 7:27:28 pm

Latest Report: Sep 21, 2019 at 6:20 pm


Visibility: N/A

Pressure: 29.98 "Hg

Humidity: 21%

Dew Point: 32 °F

Location of FrechenLocation

Past Weather in Frechen — Graph

°F

Frechen Temperature Yesterday

Maximum temperature yesterday: 66 °F (at 3:20 pm)
Minimum temperature yesterday: 37 °F (at 6:20 am)
Average temperature yesterday: 52 °F

High & Low Weather Summary for the Past Weeks

 TemperatureHumidityPressure
High75 °F (Sep 15, 3:20 pm)100% (Sep 7, 5:20 am)30.54 "Hg (Sep 7, 5:20 am)
Low37 °F (Sep 20, 6:20 am)21% (Sep 21, 5:20 pm)29.95 "Hg (Sep 9, 4:20 pm)
Average58 °F71%30.23 "Hg
* Reported Sep 6 6:20 pm — Sep 21 6:20 pm, Frechen. Weather by CustomWeather, © 2019

Note: Actual official high and low records may vary slightly from our data, if they occured in-between our weather recording intervals... More about our weather records

Advertising

Frechen Weather History for the Previous 24 Hours

Scroll right to see more
 ConditionsComfort  
Time TempWeatherWind HumidityBarometerVisibility
6:20 pm
Sat, Sep 21
75 °FMild.9 mph21%29.98 "HgN/A
5:20 pm75 °FMild.10 mph21%29.98 "HgN/A
4:20 pm75 °FMild.13 mph22%30.01 "HgN/A
3:20 pm73 °FMild.13 mph25%30.01 "HgN/A
2:20 pm72 °FMild.14 mph29%30.04 "HgN/A
1:20 pm70 °FMild.14 mph29%30.07 "HgN/A
12:20 pm68 °FMild.14 mph30%30.09 "HgN/A
11:20 am64 °FMild.13 mph37%30.12 "HgN/A
10:20 am61 °FRefreshingly cool.9 mph42%30.12 "HgN/A
9:20 am55 °FRefreshingly cool.8 mph55%30.12 "HgN/A
8:20 am50 °FCool.8 mph62%30.12 "HgN/A
7:20 am46 °FCool.5 mph71%30.15 "HgN/A
6:20 am46 °FCool.5 mph71%30.15 "HgN/A
5:20 am48 °FCool.5 mph66%30.18 "HgN/A
4:20 am48 °FCool.3 mph66%30.18 "HgN/A
3:20 am48 °FCool.5 mph71%30.18 "HgN/A
2:20 am46 °FCool.3 mph66%30.21 "HgN/A
1:20 am50 °FCool.2 mph62%30.21 "HgN/A
12:20 am54 °FCool.3 mph58%30.21 "HgN/A
11:20 pm
Fri, Sep 20
54 °FCool.3 mph54%30.24 "HgN/A
10:20 pm55 °FRefreshingly cool.3 mph51%30.24 "HgN/A
9:20 pm57 °FPassing clouds.3 mph48%30.27 "HgN/A
8:20 pm57 °FPassing clouds.3 mph55%30.27 "HgN/A
7:20 pm64 °FPassing clouds.3 mph40%30.27 "HgN/A
Weather by CustomWeather, © 2019

See weather overview